Location: Newark
(48.1500°N, 2.9667°W)
Time: 23:11:27
(UTC+00:00)

A-11 Canister half - Pass Details

Date: 29 January 2020
Orbit: 1524 x 1684 km, 47.3° (Epoch: 19 February)

Event Time Altitude Azimuth Distance (km) Brightness Sun altitude
Rises 20:58:09 0° 282° (WNW) 4,706 12.5 -38.5°
Reaches altitude 10° 21:01:10 10° 281° (W) 3,737 11.7 -39.0°
Enters shadow 21:09:20 67° 247° (WSW) 1,695 9.1 -40.3°
Maximum altitude 21:10:36 75° 198° (SSW) 1,638 - -40.4°
Drops below altitude 10° 21:20:21 10° 116° (ESE) 3,854 - -42.0°
Sets 21:23:31 0° 115° (ESE) 4,859 - -42.4°
